Weather History for Detroit, MI

Change the Weather History Date:

Wednesday, January 29, 2014

  Actual Average Record
Temperature  
Mean Temperature 10 °F -  
Max Temperature 19 °F 31 °F 57 °F (2013)
Min Temperature 0 °F 21 °F -4 °F (1977)
Degree Days  
Heating Degree Days 56    
Moisture  
Dew Point -3 °F    
Average Humidity 57    
Maximum Humidity 66    
Minimum Humidity 47    
Precipitation  
Precipitation 0.00 in - - ()
Sea Level Pressure  
Sea Level Pressure 30.16 in    
Wind  
Wind Speed 14 mph (WSW)    
Max Wind Speed 18 mph    
Max Gust Speed 26 mph    
Visibility 10 miles    
Events      
Averages and records for this station are not official NWS values.
T = Trace of Precipitation, MM = Missing Value Source: NWS Daily Summary

Daily Weather History Graph

Daily Weather History Graph

Search for Another Location

Airport:

Trip Planner

Search our weather history database for the weather conditions in past years. The results will help you decide how hot, cold, wet, or windy it might be!

Date:

Astronomy

Jan. 29, 2014 Rise Set
Actual Time 7:48 AM EST 5:42 PM EST
Civil Twilight 7:18 AM EST 6:12 PM EST
Nautical Twilight 6:44 AM EST 6:46 PM EST
Astronomical Twilight 6:11 AM EST 7:19 PM EST
Moon 6:24 AM EST (1/29) 4:40 PM EST (1/29)
Length of Visible Light 10h 53m
Length of Day
9h 53m
Waning Crescent, 2% of the Moon is Illuminated
Jan 29
Waning Crescent
Jan 30
New
Feb 6
First Quarter
Feb 14
Full
Feb 22
Last Quarter

Hourly Weather History & Observations

Time (EST) Temp. Windchill Dew Point Humidity Pressure Visibility Wind Dir Wind Speed Gust Speed Precip Events Conditions
12:53 AM -0.0 °F -17.1 °F -11.0 °F 60% 30.21 in 10.0 mi WSW 11.5 mph - N/A   Clear
1:53 AM -0.0 °F -17.1 °F -9.9 °F 63% 30.19 in 10.0 mi WSW 11.5 mph 20.7 mph N/A   Clear
2:53 AM -0.0 °F -18.0 °F -9.9 °F 63% 30.17 in 10.0 mi WSW 12.7 mph - N/A   Clear
3:53 AM 1.0 °F -18.0 °F -9.0 °F 63% 30.16 in 10.0 mi WSW 15.0 mph - N/A   Clear
4:53 AM 1.9 °F -16.2 °F -8.0 °F 63% 30.14 in 10.0 mi WSW 13.8 mph 23.0 mph N/A   Clear
5:53 AM 1.9 °F -16.9 °F -8.0 °F 63% 30.13 in 10.0 mi WSW 15.0 mph 21.9 mph N/A   Clear
6:53 AM 3.0 °F -15.5 °F -7.1 °F 63% 30.13 in 10.0 mi SW 15.0 mph - N/A   Clear
7:53 AM 1.9 °F -16.2 °F -7.1 °F 66% 30.14 in 10.0 mi WSW 13.8 mph - N/A   Clear
8:53 AM 3.9 °F -13.7 °F -6.0 °F 64% 30.14 in 10.0 mi WSW 13.8 mph 23.0 mph N/A   Clear
9:53 AM 6.1 °F -12.8 °F -5.1 °F 60% 30.14 in 10.0 mi WSW 17.3 mph - N/A   Partly Cloudy
10:12 AM 6.8 °F -12.4 °F -4.0 °F 61% 30.09 in 9.0 mi WSW 18.4 mph 25.3 mph N/A   Mostly Cloudy
10:19 AM 6.8 °F -11.3 °F -4.0 °F 61% 30.10 in 10.0 mi WSW 16.1 mph 24.2 mph N/A   Scattered Clouds
10:53 AM 9.0 °F -7.9 °F -2.9 °F 59% 30.15 in 10.0 mi WSW 15.0 mph 23.0 mph N/A   Clear
11:53 AM 10.9 °F -6.5 °F -0.9 °F 59% 30.14 in 10.0 mi WSW 17.3 mph 24.2 mph N/A   Clear
12:53 PM 14.0 °F -0.8 °F -0.0 °F 54% 30.13 in 10.0 mi WSW 13.8 mph 23.0 mph N/A   Clear
1:53 PM 16.0 °F 0.6 °F 1.9 °F 54% 30.12 in 10.0 mi SW 16.1 mph 23.0 mph N/A   Clear
2:53 PM 19.0 °F 4.5 °F 1.9 °F 47% 30.12 in 10.0 mi West 16.1 mph 25.3 mph N/A   Clear
3:53 PM 18.0 °F 3.1 °F 1.9 °F 50% 30.15 in 10.0 mi West 16.1 mph 26.5 mph N/A   Clear
4:53 PM 18.0 °F 3.6 °F 1.9 °F 50% 30.17 in 10.0 mi WSW 15.0 mph - N/A   Clear
5:53 PM 17.1 °F 4.3 °F -0.0 °F 47% 30.19 in 10.0 mi WSW 11.5 mph - N/A   Clear
6:53 PM 15.1 °F 1.1 °F -0.9 °F 49% 30.21 in 10.0 mi SW 12.7 mph - N/A   Clear
7:53 PM 15.1 °F -0.1 °F -0.9 °F 49% 30.22 in 10.0 mi SW 15.0 mph - N/A   Clear
8:53 PM 15.1 °F 1.1 °F -0.9 °F 49% 30.22 in 10.0 mi WSW 12.7 mph - N/A   Clear
9:53 PM 14.0 °F 1.2 °F -0.0 °F 54% 30.22 in 10.0 mi SW 10.4 mph - N/A   Clear
10:53 PM 14.0 °F 0.5 °F 1.0 °F 56% 30.17 in 10.0 mi SW 11.5 mph - N/A   Clear
11:53 PM 15.1 °F 4.2 °F 3.0 °F 59% 30.20 in 10.0 mi SSW 8.1 mph - N/A   Clear